Downstream station:
SHEF ID: BCDO2 Kiamichi River near Big Cedar, O
STATION TYPE:
Regulating: Stage = 9.00, Flow = 2088
STAGE RIV-FLOW WTR-TEMP BAT-LOAD
ft cfs F volt
Ccp-Rev Ccp-Rev Ccp-Rev Ccp-Rev
(US/Central)
06/30 00:00 2.91 0 79.97 12.23
06/30 01:00 2.91 0 79.20 12.23
06/30 02:00 2.91 0 78.42 12.21
06/30 03:00 2.92 0 77.70 12.19
06/30 04:00 2.91 0 76.98 12.17
06/30 05:00 2.92 0 76.35 12.14
06/30 06:00 2.92 0 75.76 12.12
06/30 07:00 2.91 0 75.34 12.11
06/30 08:00 2.91 0 74.98 12.36
06/30 09:00 2.91 0 74.88 12.94
06/30 10:00 2.91 0 75.34 12.89
06/30 11:00 2.91 0 75.58 12.90
06/30 12:00 2.91 0 77.29 12.88
06/30 13:00 2.90 0 77.95 12.80
06/30 14:00 2.89 0 79.23 12.74
06/30 15:00 2.89 0 80.55 12.64
06/30 16:00 2.89 0 81.25 12.59
06/30 17:00 2.88 0 83.32 12.53
06/30 18:00 2.88 0 84.33 12.53
06/30 19:00 2.88 0 85.28 12.53
06/30 20:00 2.88 0 85.03 12.52
06/30 21:00 2.88 0 84.42 12.34
06/30 22:00 2.88 0 83.68 12.26
06/30 23:00 2.89 0 82.90 12.22